Flag for U.S.A. Weather past 2 weeks in Davenport, Iowa, U.S.A.

Now
36 °F

Clear.


Feels Like: 30 °F
Forecast: 35 / 58 °F
Wind: 8 mph from East

Location: Davenport Municipal Airport

Current Time: Oct 22, 2014 at 3:56:55 AM

Latest Report: Oct 22, 2014 at 2:52 AM


Visibility: 10 mi

Pressure: 30.29 "Hg

Humidity: 85%

Dew point: 32 °F

Location of DavenportLocation

Historic Weather in Davenport — Graph

°F

Davenport temperature yesterday

Maximum temperature yesterday: 57 °F (at 12:52 PM)
Minimum temperature yesterday: 37 °F (at 5:52 AM)
Average temperature yesterday: 46 °F

Past Weeks' High & Low Weather Summary

 TemperatureHumidityPressure
High70 °F (Oct 7, 3:52 PM)100% (Oct 8, 9:52 PM)30.29 "Hg (Oct 8, 9:52 PM)
Low1 °F (Oct 8, 9:52 PM)24% (Oct 8, 2:52 PM)29.41 "Hg (Oct 14, 12:52 AM)
Average51 °F72%29.95 "Hg
* Reported Oct 7 2:52 AM — Oct 22 2:52 AM, Davenport, Weather by CustomWeather, © 2014

Note: Actual official high and low records may vary slightly from our data, if they occured in-between our weather recording intervals... More about our weather records

Advertising

Davenport weather history for previous 24 hours

 ConditionsComfort  
Time TempWeatherWind HumidityBarometerVisibility
2:52 AM
Oct 22
36 °FClear.8 mph85%30.29 "Hg10 mi
1:52 AM37 °FClear.8 mph86%30.28 "Hg10 mi
12:52 AM38 °FClear.7 mph83%30.27 "Hg10 mi
11:52 PM
Oct 21
38 °FClear.7 mph86%30.27 "Hg10 mi
10:52 PM40 °FClear.7 mph80%30.27 "Hg10 mi
9:52 PM43 °FClear.8 mph76%30.26 "Hg10 mi
8:52 PM44 °FClear.9 mph73%30.25 "Hg10 mi
7:52 PM46 °FClear.9 mph68%30.23 "Hg10 mi
6:52 PM48 °FSunny.7 mph63%30.22 "Hg10 mi
5:52 PM53 °FSunny.8 mph52%30.20 "Hg10 mi
4:52 PM57 °FSunny.12 mph47%30.19 "Hg10 mi
3:52 PM57 °FSunny.7 mph47%30.18 "Hg10 mi
2:52 PM57 °FSunny.8 mph46%30.18 "Hg10 mi
1:52 PM57 °FSunny.10 mph49%30.19 "Hg10 mi
12:52 PM57 °FSunny.12 mph49%30.20 "Hg10 mi
11:52 AM55 °FSunny.12 mph55%30.21 "Hg10 mi
10:52 AM53 °FSunny.12 mph59%30.22 "Hg10 mi
9:52 AM50 °FSunny.12 mph71%30.21 "Hg10 mi
8:52 AM47 °FSunny.8 mph77%30.19 "Hg10 mi
7:52 AM38 °FClear.7 mph90%30.16 "Hg10 mi
6:52 AM39 °FClear.3 mph89%30.15 "Hg10 mi
5:52 AM37 °FClear.6 mph93%30.12 "Hg10 mi
4:52 AM38 °FClear.6 mph90%30.10 "Hg9 mi
3:52 AM38 °FClear.3 mph90%30.09 "Hg10 mi
Weather by CustomWeather, © 2014

See weather overviewHow to use our weather pages